SCP
0 0 0 0 0 0 0 0 0 0 0 0 0 0 0 0 0 0 0 -0 0 0 0 0 0 0 0 0 0 0 0 0 0 0 0 0 0 0 0 0 0 0 0 0
0 0 0 0 0 0 0 0 0 0 0 0 0 0 0 0 0 0 0 0 0 0 0 0 0 0 0 0 0 0 0 0 0 0 0 0 0 0 0 0 0 0 0 0
0 0 0 0 0 0 0 0 0 0 0 0 0 0 0 0 0 0 0 0 0 0 0 0 0 0 0 0 0 0 0 0 0 0 0 0 0 0 0 0 0 0 0 0
0 0 0 0 0 0 0 0 0 0 0 0 0 0 0 0 0 0 0 0 0 0 0 0 0 0 0 0 0 0 0 0 0 0 0 0 0 0 0 0 0 0 0 0
0 0 0 0 0 0 0 0 0 0 0 0 0 0 0 0 0 0 0 0 0 0 0 0 0 0 0 0 0 0 0 0 0 0 0 0 0 0 0 0 0 0 0 0
0 0 0 0 0 0 0 0 0 0 0 0 0 0 0 0 0 0 0 0 0 0 0 0 0 0 0 0 0 0 0 0 0 0 0 0 0 0 0 0 0 0 0 0
0 0 0 0 0 0 0 0 0 0 0 0 0 0 0 0 0 0 0 0 0 0 0 0 0 0 0 0 0 0 0 0 0 0 0 0 0 0 0 0 0 0 0 0
0 0 0 0 0 0 0 0 0 0 0 0 0 0 0 0 0 0 0 0 0 0 0 0 0 0 0 0 0 0 0 0 0 0 0 0 0 0 0 0 0 0 0 0
0 0 0 0 0 0 0 0 0 0 0 0 0 0 0 0 0 0 0 0 0 0 0 0 0 0 0 0 0 0 0 0 0 0 0 0 0 0 0 0 0 0 0 0
0 0 0 0 0 0 0 0 0 0 0 0 0 0 0 0 0 0 0 0 0 0 0 0 0 0 0 0 0 0 0 0 0 0 0 0 0 0 0 0 0 0 0 0
0 0 0 0 0 0 0 0 0 0 0 -0 -0 -0 -0 -0 0 0 0 0 0 0 0 0 0 0 0 0 0 0 0 0 0 0 0 0 0 0 0 0 0 0 0 0
0 -0 -0 -0 -0 -0 -0 -0 -0 0 0 0 0 -0 0 0 0 0 0 0 0 0 0 0 0 0 0 0 0 0 0 0 0 0 0 0 0 0 0 0 0 0 0 0
0 -0 -0 -0 -0 -0 -0 0 0 0 0 0 0 0 0 0 0 0 0 0 0 0 0 0 0 0 0 0 0 0 0 0 0 0 0 0 0 0 0 0 0 0 0 0
-0 -0 -0 -0 -0 -0 0 0 0 0 0 0 0 0 0 0 0 0 0 0 0 0 0 0 0 0 0 0 0 0 0 0 0 0 0 0 0 0 0 0 0 0 0 0
0 0 0 0 -0 -0 0 0 0 0 0 0 0 0 0 0 0 0 0 0 0 0 0 0 0 0 0 0 0 0 0 0 0 0 0 0 0 0 0 0 0 0 0 0
-0 0 -0 0 0 0 0 0 0 0 0 0 0 0 0 0 0 0 0 0 0 0 0 0 0 0 0 0 0 0 0 0 0 0 0 0 0 0 0 0 0 0 0 0
0 0 0 0 0 0 0 0 0 0 0 0 0 0 0 0 0 0 0 0 0 0 0 0 0 0 0 0 0 0 0 0 0 0 0 0 0 0 0 0 0 0 0 0
-0 0 0 0 0 0 0 0 0 0 0 0 0 0 0 0 0 0 0 0 0 0 0 0 0 0 0 0 0 0 0 0 0 0 0 0 0 0 0 0 0 0 0 0
0 0 0 0 0 0 0 0 0 0 0 0 0 0 0 0 0 0 0 0 0 0 0 0 0 0 0 0 0 0 0 0 0 0 0 0 0 0 0 0 0 0 0 0
0 0 0 0 0 0 0 0 0 0 0 0 0 0 0 0 0 0 0 0 0 0 0 0 0 0 0 0 0 0 0 0 0 0 0 0 0 0 0 0 0 0 0 0
0 0 0 0 0 0 0 0 0 0 0 0 0 0 0 0 0 0 0 0 0 0 0 0 0 0 0 0 0 0 0 0 0 0 0 0 0 0 0 0 0 0 0 0
0 0 0 0 0 0 0 0 0 0 0 0 0 0 0 0 0 0 0 0 0 0 0 0 0 0 0 0 0 0 0 0 0 0 0 0 0 0 0 0 0 0 0 0
0 0 0 0 0 0 0 0 0 0 0 0 0 0 0 0 0 0 0 0 0 0 0 0 0 0 0 0 0 0 0 0 0 0 0 0 0 0 0 0 0 0 0 0
0 0 0 0 0 0 0 0 0 0 0 0 0 0 0 0 0 0 0 0 0 0 0 0 0 0 0 0 0 0 0 0 0 0 0 0 0 0 0 0 0 0 0 0
0 0 0 0 0 0 0 0 0 0 0 0 0 0 0 0 0 0 0 0 0 0 0 0 0 0 0 0 0 0 0 0 0 0 0 0 0 0 0 0 0 0 0 0
0 0 0 0 0 0 0 0 0 0 0 0 0 0 0 0 0 0 0 0 0 0 0 0 0 0 0 0 0 0 0 0 0 0 0 0 0 0 0 0 0 0 0 0
0 0 0 0 0 0 0 0 0 0 0 0 0 0 0 0 0 0 0 0 0 0 0 0 0 0 0 0 0 0 0 0 0 0 0 0 0 0 0 0 0 0 0 0
Wind_Speed_500mb
15 9 10 7 9 16 19 12 7 5 11 9 7 9 27 28 30 21 19 17 12 13 15 17 20 25 21 19 20 26 30 34 38 41 43 47 51 54 56 57 60 62 64 63
6 10 9 2 8 10 9 9 11 12 25 14 45 49 43 53 53 51 33 16 16 19 18 22 22 18 19 24 32 38 43 47 51 55 59 63 64 65 65 65 66 66 65 66
4 7 4 9 13 20 12 12 13 15 21 25 16 26 32 40 43 23 11 11 14 18 18 15 19 24 29 38 45 49 54 57 62 67 69 68 69 71 71 71 72 70 70 69
4 5 1 10 4 5 17 18 19 23 23 28 34 26 18 6 7 7 10 14 13 10 13 20 26 33 39 46 52 57 61 63 64 66 69 71 73 72 71 70 70 71 71 70
8 5 9 11 8 10 11 12 10 16 20 40 33 13 12 2 9 17 14 11 8 12 22 31 39 46 53 56 56 56 58 62 65 68 71 70 69 67 65 66 67 67 67 68
4 7 12 5 5 9 13 8 13 24 15 16 12 5 3 7 12 13 9 4 12 23 34 44 49 49 50 53 57 59 60 59 57 56 59 61 63 64 66 65 67 67 68 66
5 3 13 11 6 6 11 8 8 13 12 9 7 4 18 12 7 5 11 22 30 35 38 43 46 49 51 53 51 48 49 52 56 57 59 60 60 59 61 62 64 66 68 70
2 3 15 19 7 12 4 7 8 10 9 14 15 12 11 9 14 21 27 30 30 31 35 42 47 46 42 44 46 49 51 52 53 54 54 56 58 58 58 60 63 65 67 70
15 12 6 15 11 10 10 3 7 10 12 11 11 13 15 20 23 24 25 28 32 36 39 41 39 43 45 46 47 48 49 49 50 49 49 51 54 55 57 58 62 66 69 74
4 13 30 42 38 37 32 33 22 18 18 18 17 19 23 26 28 30 32 35 36 37 34 37 43 44 46 48 47 47 46 45 46 47 48 49 51 55 60 61 64 67 70 74
10 22 36 46 44 38 33 32 30 30 25 23 24 27 30 31 32 34 35 37 37 34 40 39 39 42 43 43 42 43 43 44 45 47 51 53 54 58 61 59 60 61 62 65
10 20 19 4 4 11 17 26 29 29 28 27 29 29 30 31 33 34 36 35 35 39 39 39 39 37 39 41 43 45 45 45 47 51 53 56 61 64 58 58 57 54 53 52
37 37 36 35 31 32 36 33 29 31 30 34 31 33 34 34 35 35 35 39 41 40 38 36 36 36 40 41 42 43 44 45 48 50 54 59 61 64 72 66 59 57 55 51
55 56 47 55 41 29 25 31 35 37 37 34 37 35 37 38 38 39 42 41 39 39 37 39 38 37 39 40 41 42 42 45 49 51 54 55 56 58 60 65 72 70 59 54
30 32 43 42 33 26 28 35 41 40 37 38 35 38 37 39 41 42 42 41 41 40 40 41 39 39 39 39 39 40 44 47 49 50 52 54 55 56 58 60 62 65 65 58
20 29 40 48 44 42 40 41 41 39 36 37 41 39 40 41 40 39 38 39 39 39 41 42 40 39 37 37 38 42 45 48 50 52 51 51 52 54 56 58 60 60 60 59
38 40 36 35 35 39 44 38 39 40 41 46 42 41 40 40 40 38 39 39 41 41 40 39 36 35 34 36 41 43 45 46 49 49 50 51 53 54 54 55 56 58 57 53
57 51 46 41 36 32 33 35 38 43 42 38 40 43 42 42 41 40 41 42 41 39 38 35 34 32 36 40 42 45 45 46 47 49 51 53 53 53 54 54 54 55 56 53
25 31 37 43 46 47 47 44 41 41 44 46 46 45 46 45 42 41 41 41 37 36 34 30 30 32 34 39 42 42 44 46 47 48 49 51 53 52 53 54 56 54 53 53
18 19 21 27 32 37 39 38 39 41 44 47 47 48 46 43 42 41 41 38 34 34 30 28 30 33 37 38 38 40 42 44 47 49 52 54 55 57 56 55 55 55 54 52
27 29 31 34 34 35 36 39 44 46 47 49 49 48 46 44 40 41 40 36 32 28 28 30 32 35 36 38 39 41 43 45 47 50 53 55 58 57 57 56 56 56 55 53
32 36 37 39 41 42 45 47 50 51 53 52 50 47 44 42 40 39 35 33 32 29 29 30 35 37 40 41 42 43 45 47 50 53 56 57 59 60 59 58 58 57 55 53
41 43 47 50 49 48 49 51 52 53 52 50 45 42 41 40 39 35 31 30 28 30 30 33 36 39 39 38 39 41 44 48 52 55 57 58 59 59 59 59 57 54 53 51
52 53 53 57 56 53 54 54 53 50 45 41 40 42 42 38 34 31 28 27 28 28 31 35 35 33 32 33 35 40 45 50 53 55 57 58 59 59 58 57 56 53 51 50
60 59 61 64 63 58 57 55 48 43 42 42 43 40 35 31 28 24 23 24 26 28 29 28 27 27 29 33 38 43 46 49 52 55 56 57 58 58 57 54 52 51 50 49
60 65 69 70 67 61 56 47 41 40 42 39 34 30 26 23 22 21 21 22 24 22 21 19 22 26 31 36 41 45 47 48 50 52 53 54 54 54 53 52 52 49 47 46
67 71 72 70 66 58 49 43 40 38 33 29 27 23 20 19 18 19 20 19 17 14 15 19 23 29 34 38 41 43 47 48 48 50 50 51 51 51 52 51 50 49 46 44
Wind_Direction_500mb
101 70 33 61 175 207 217 229 201 77 230 266 324 295 297 301 291 281 281 306 285 285 296 296 309 315 313 312 317 321 323 322 321 320 318 315 312 310 308 307 307 306 305 302
60 120 103 135 269 266 272 259 279 275 268 267 274 274 272 272 276 281 288 313 299 292 290 301 306 309 310 314 317 318 319 319 318 316 315 313 312 311 310 310 309 309 309 308
122 353 73 338 219 209 210 207 203 229 241 253 263 258 253 260 260 245 244 243 260 281 290 293 301 306 312 315 317 316 314 314 314 313 312 312 312 312 312 312 311 310 309 309
168 23 54 236 299 241 228 237 237 247 258 265 266 283 292 272 201 186 199 219 253 262 285 299 303 306 307 307 307 307 307 308 308 307 307 308 308 309 311 312 313 314 313 313
124 197 289 323 229 171 172 263 248 258 260 266 289 196 73 116 186 184 202 215 234 288 304 306 305 305 304 304 303 303 305 306 307 308 310 313 315 318 320 319 319 319 320 319
55 137 208 256 348 19 96 291 9 26 34 29 133 172 147 165 156 163 167 241 297 301 301 299 299 299 300 301 302 305 306 310 313 316 316 317 317 317 317 317 317 317 317 319
183 210 287 263 254 13 104 235 53 58 53 41 106 140 158 166 176 246 292 300 297 296 296 296 298 300 303 305 309 312 314 314 315 316 316 316 315 316 316 316 316 317 319 322
95 90 286 200 80 180 150 87 102 75 78 98 124 140 169 222 269 284 289 291 294 297 299 301 304 305 307 307 310 312 313 315 315 314 314 316 318 320 321 322 322 323 323 322
184 209 221 192 218 236 292 234 212 215 202 199 206 234 255 276 286 295 296 297 300 303 304 304 305 306 307 309 311 312 312 312 314 317 319 321 324 326 328 331 329 328 327 325
91 254 245 255 255 263 274 284 269 242 241 254 274 285 293 297 295 294 297 301 305 306 302 303 304 306 309 310 309 309 312 316 319 321 324 328 330 331 331 332 331 330 328 325
259 274 279 271 257 260 262 265 261 251 242 257 270 281 286 287 290 292 296 300 300 303 307 309 308 306 304 305 309 314 317 320 323 327 329 329 331 333 333 334 333 329 325 321
224 218 212 249 220 264 270 274 269 251 249 265 275 279 283 283 285 289 293 295 301 305 305 303 300 301 304 312 316 318 321 323 325 327 329 329 329 327 329 329 329 327 325 318
238 252 274 281 280 278 283 269 249 244 263 279 280 281 280 285 290 294 297 297 296 294 296 298 303 309 313 315 316 318 320 323 324 326 327 328 328 329 328 328 330 331 329 325
248 254 265 266 272 265 262 260 252 259 271 273 281 281 286 290 295 296 295 297 296 300 303 305 309 313 313 315 317 316 318 321 323 325 325 326 328 329 329 330 329 331 332 330
260 250 255 259 263 260 257 256 259 262 267 273 275 280 285 291 294 294 295 295 299 304 308 309 312 310 313 314 315 319 320 322 323 326 329 330 330 330 330 328 327 327 329 330
254 252 255 257 258 256 260 260 256 264 274 279 279 279 279 283 289 292 294 296 301 305 307 308 309 308 310 313 317 320 323 325 327 327 328 328 330 329 328 327 327 327 328 330
249 252 253 263 265 263 264 269 264 270 274 275 276 275 281 288 292 294 293 298 302 304 302 302 302 304 310 317 321 322 324 325 327 328 329 330 329 328 327 326 325 325 325 326
252 257 258 259 263 263 259 262 264 273 276 280 277 280 286 291 293 294 297 300 302 302 301 302 303 310 316 317 320 322 323 324 326 328 328 328 328 327 325 324 324 322 322 322
240 252 256 259 262 264 266 269 274 275 275 276 278 282 285 287 287 290 295 298 300 298 297 298 303 309 311 315 317 319 321 323 324 325 324 324 324 324 322 321 320 319 319 318
250 262 270 272 266 266 272 273 273 274 276 278 280 282 285 284 285 289 292 293 291 291 293 297 301 307 312 312 315 318 319 320 322 323 323 323 322 321 321 319 317 317 317 315
265 266 275 281 280 276 275 275 276 279 280 281 282 284 282 280 285 288 290 289 287 289 289 293 299 307 310 313 316 315 317 319 321 321 321 321 320 320 319 317 316 316 315 313
267 269 273 276 274 272 273 276 280 282 285 286 284 281 276 281 284 285 283 283 287 287 291 295 303 309 312 313 314 318 321 323 324 323 323 322 321 320 319 318 317 316 315 314
270 268 275 275 271 271 274 280 285 288 288 288 282 275 276 278 279 278 273 279 281 286 291 296 303 306 309 314 318 323 325 325 325 325 324 324 323 322 321 320 318 316 315 314
281 271 274 275 269 268 277 284 285 287 287 282 278 277 277 276 271 270 273 277 283 289 295 301 305 309 315 320 324 326 326 325 325 325 325 325 324 323 323 322 320 320 317 315
282 278 276 273 268 272 279 278 279 282 283 281 279 276 271 266 263 266 266 273 283 291 296 298 305 313 320 324 327 327 326 325 325 325 326 326 326 326 326 325 324 322 319 317
286 284 282 276 268 270 274 275 278 280 281 279 273 267 260 256 256 260 266 277 287 290 293 301 311 320 326 329 329 328 327 327 326 326 327 327 326 327 327 327 325 323 320 318
281 276 275 271 270 275 274 272 276 280 275 268 261 251 246 245 247 260 272 277 278 285 300 311 322 327 328 328 328 329 329 328 328 328 328 327 327 326 327 327 326 325 324 321
Wind_Speed_850mb
15 9 10 7 9 16 19 12 7 5 11 9 7 9 27 28 30 21 19 17 12 13 15 17 20 25 21 19 20 26 30 34 38 41 43 47 51 54 56 57 60 62 64 63
6 10 9 2 8 10 9 9 11 12 25 14 45 49 43 53 53 51 33 16 16 19 18 22 22 18 19 24 32 38 43 47 51 55 59 63 64 65 65 65 66 66 65 66
4 7 4 9 13 20 12 12 13 15 21 25 16 26 32 40 43 23 11 11 14 18 18 15 19 24 29 38 45 49 54 57 62 67 69 68 69 71 71 71 72 70 70 69
4 5 1 10 4 5 17 18 19 23 23 28 34 26 18 6 7 7 10 14 13 10 13 20 26 33 39 46 52 57 61 63 64 66 69 71 73 72 71 70 70 71 71 70
8 5 9 11 8 10 11 12 10 16 20 40 33 13 12 2 9 17 14 11 8 12 22 31 39 46 53 56 56 56 58 62 65 68 71 70 69 67 65 66 67 67 67 68
4 7 12 5 5 9 13 8 13 24 15 16 12 5 3 7 12 13 9 4 12 23 34 44 49 49 50 53 57 59 60 59 57 56 59 61 63 64 66 65 67 67 68 66
5 3 13 11 6 6 11 8 8 13 12 9 7 4 18 12 7 5 11 22 30 35 38 43 46 49 51 53 51 48 49 52 56 57 59 60 60 59 61 62 64 66 68 70
2 3 15 19 7 12 4 7 8 10 9 14 15 12 11 9 14 21 27 30 30 31 35 42 47 46 42 44 46 49 51 52 53 54 54 56 58 58 58 60 63 65 67 70
15 12 6 15 11 10 10 3 7 10 12 11 11 13 15 20 23 24 25 28 32 36 39 41 39 43 45 46 47 48 49 49 50 49 49 51 54 55 57 58 62 66 69 74
4 13 30 42 38 37 32 33 22 18 18 18 17 19 23 26 28 30 32 35 36 37 34 37 43 44 46 48 47 47 46 45 46 47 48 49 51 55 60 61 64 67 70 74
10 22 36 46 44 38 33 32 30 30 25 23 24 27 30 31 32 34 35 37 37 34 40 39 39 42 43 43 42 43 43 44 45 47 51 53 54 58 61 59 60 61 62 65
10 20 19 4 4 11 17 26 29 29 28 27 29 29 30 31 33 34 36 35 35 39 39 39 39 37 39 41 43 45 45 45 47 51 53 56 61 64 58 58 57 54 53 52
37 37 36 35 31 32 36 33 29 31 30 34 31 33 34 34 35 35 35 39 41 40 38 36 36 36 40 41 42 43 44 45 48 50 54 59 61 64 72 66 59 57 55 51
55 56 47 55 41 29 25 31 35 37 37 34 37 35 37 38 38 39 42 41 39 39 37 39 38 37 39 40 41 42 42 45 49 51 54 55 56 58 60 65 72 70 59 54
30 32 43 42 33 26 28 35 41 40 37 38 35 38 37 39 41 42 42 41 41 40 40 41 39 39 39 39 39 40 44 47 49 50 52 54 55 56 58 60 62 65 65 58
20 29 40 48 44 42 40 41 41 39 36 37 41 39 40 41 40 39 38 39 39 39 41 42 40 39 37 37 38 42 45 48 50 52 51 51 52 54 56 58 60 60 60 59
38 40 36 35 35 39 44 38 39 40 41 46 42 41 40 40 40 38 39 39 41 41 40 39 36 35 34 36 41 43 45 46 49 49 50 51 53 54 54 55 56 58 57 53
57 51 46 41 36 32 33 35 38 43 42 38 40 43 42 42 41 40 41 42 41 39 38 35 34 32 36 40 42 45 45 46 47 49 51 53 53 53 54 54 54 55 56 53
25 31 37 43 46 47 47 44 41 41 44 46 46 45 46 45 42 41 41 41 37 36 34 30 30 32 34 39 42 42 44 46 47 48 49 51 53 52 53 54 56 54 53 53
18 19 21 27 32 37 39 38 39 41 44 47 47 48 46 43 42 41 41 38 34 34 30 28 30 33 37 38 38 40 42 44 47 49 52 54 55 57 56 55 55 55 54 52
27 29 31 34 34 35 36 39 44 46 47 49 49 48 46 44 40 41 40 36 32 28 28 30 32 35 36 38 39 41 43 45 47 50 53 55 58 57 57 56 56 56 55 53
32 36 37 39 41 42 45 47 50 51 53 52 50 47 44 42 40 39 35 33 32 29 29 30 35 37 40 41 42 43 45 47 50 53 56 57 59 60 59 58 58 57 55 53
41 43 47 50 49 48 49 51 52 53 52 50 45 42 41 40 39 35 31 30 28 30 30 33 36 39 39 38 39 41 44 48 52 55 57 58 59 59 59 59 57 54 53 51
52 53 53 57 56 53 54 54 53 50 45 41 40 42 42 38 34 31 28 27 28 28 31 35 35 33 32 33 35 40 45 50 53 55 57 58 59 59 58 57 56 53 51 50
60 59 61 64 63 58 57 55 48 43 42 42 43 40 35 31 28 24 23 24 26 28 29 28 27 27 29 33 38 43 46 49 52 55 56 57 58 58 57 54 52 51 50 49
60 65 69 70 67 61 56 47 41 40 42 39 34 30 26 23 22 21 21 22 24 22 21 19 22 26 31 36 41 45 47 48 50 52 53 54 54 54 53 52 52 49 47 46
67 71 72 70 66 58 49 43 40 38 33 29 27 23 20 19 18 19 20 19 17 14 15 19 23 29 34 38 41 43 47 48 48 50 50 51 51 51 52 51 50 49 46 44
Wind_Direction_850mb
101 70 33 61 175 207 217 229 201 77 230 266 324 295 297 301 291 281 281 306 285 285 296 296 309 315 313 312 317 321 323 322 321 320 318 315 312 310 308 307 307 306 305 302
60 120 103 135 269 266 272 259 279 275 268 267 274 274 272 272 276 281 288 313 299 292 290 301 306 309 310 314 317 318 319 319 318 316 315 313 312 311 310 310 309 309 309 308
122 353 73 338 219 209 210 207 203 229 241 253 263 258 253 260 260 245 244 243 260 281 290 293 301 306 312 315 317 316 314 314 314 313 312 312 312 312 312 312 311 310 309 309
168 23 54 236 299 241 228 237 237 247 258 265 266 283 292 272 201 186 199 219 253 262 285 299 303 306 307 307 307 307 307 308 308 307 307 308 308 309 311 312 313 314 313 313
124 197 289 323 229 171 172 263 248 258 260 266 289 196 73 116 186 184 202 215 234 288 304 306 305 305 304 304 303 303 305 306 307 308 310 313 315 318 320 319 319 319 320 319
55 137 208 256 348 19 96 291 9 26 34 29 133 172 147 165 156 163 167 241 297 301 301 299 299 299 300 301 302 305 306 310 313 316 316 317 317 317 317 317 317 317 317 319
183 210 287 263 254 13 104 235 53 58 53 41 106 140 158 166 176 246 292 300 297 296 296 296 298 300 303 305 309 312 314 314 315 316 316 316 315 316 316 316 316 317 319 322
95 90 286 200 80 180 150 87 102 75 78 98 124 140 169 222 269 284 289 291 294 297 299 301 304 305 307 307 310 312 313 315 315 314 314 316 318 320 321 322 322 323 323 322
184 209 221 192 218 236 292 234 212 215 202 199 206 234 255 276 286 295 296 297 300 303 304 304 305 306 307 309 311 312 312 312 314 317 319 321 324 326 328 331 329 328 327 325
91 254 245 255 255 263 274 284 269 242 241 254 274 285 293 297 295 294 297 301 305 306 302 303 304 306 309 310 309 309 312 316 319 321 324 328 330 331 331 332 331 330 328 325
259 274 279 271 257 260 262 265 261 251 242 257 270 281 286 287 290 292 296 300 300 303 307 309 308 306 304 305 309 314 317 320 323 327 329 329 331 333 333 334 333 329 325 321
224 218 212 249 220 264 270 274 269 251 249 265 275 279 283 283 285 289 293 295 301 305 305 303 300 301 304 312 316 318 321 323 325 327 329 329 329 327 329 329 329 327 325 318
238 252 274 281 280 278 283 269 249 244 263 279 280 281 280 285 290 294 297 297 296 294 296 298 303 309 313 315 316 318 320 323 324 326 327 328 328 329 328 328 330 331 329 325
248 254 265 266 272 265 262 260 252 259 271 273 281 281 286 290 295 296 295 297 296 300 303 305 309 313 313 315 317 316 318 321 323 325 325 326 328 329 329 330 329 331 332 330
260 250 255 259 263 260 257 256 259 262 267 273 275 280 285 291 294 294 295 295 299 304 308 309 312 310 313 314 315 319 320 322 323 326 329 330 330 330 330 328 327 327 329 330
254 252 255 257 258 256 260 260 256 264 274 279 279 279 279 283 289 292 294 296 301 305 307 308 309 308 310 313 317 320 323 325 327 327 328 328 330 329 328 327 327 327 328 330
249 252 253 263 265 263 264 269 264 270 274 275 276 275 281 288 292 294 293 298 302 304 302 302 302 304 310 317 321 322 324 325 327 328 329 330 329 328 327 326 325 325 325 326
252 257 258 259 263 263 259 262 264 273 276 280 277 280 286 291 293 294 297 300 302 302 301 302 303 310 316 317 320 322 323 324 326 328 328 328 328 327 325 324 324 322 322 322
240 252 256 259 262 264 266 269 274 275 275 276 278 282 285 287 287 290 295 298 300 298 297 298 303 309 311 315 317 319 321 323 324 325 324 324 324 324 322 321 320 319 319 318
250 262 270 272 266 266 272 273 273 274 276 278 280 282 285 284 285 289 292 293 291 291 293 297 301 307 312 312 315 318 319 320 322 323 323 323 322 321 321 319 317 317 317 315
265 266 275 281 280 276 275 275 276 279 280 281 282 284 282 280 285 288 290 289 287 289 289 293 299 307 310 313 316 315 317 319 321 321 321 321 320 320 319 317 316 316 315 313
267 269 273 276 274 272 273 276 280 282 285 286 284 281 276 281 284 285 283 283 287 287 291 295 303 309 312 313 314 318 321 323 324 323 323 322 321 320 319 318 317 316 315 314
270 268 275 275 271 271 274 280 285 288 288 288 282 275 276 278 279 278 273 279 281 286 291 296 303 306 309 314 318 323 325 325 325 325 324 324 323 322 321 320 318 316 315 314
281 271 274 275 269 268 277 284 285 287 287 282 278 277 277 276 271 270 273 277 283 289 295 301 305 309 315 320 324 326 326 325 325 325 325 325 324 323 323 322 320 320 317 315
282 278 276 273 268 272 279 278 279 282 283 281 279 276 271 266 263 266 266 273 283 291 296 298 305 313 320 324 327 327 326 325 325 325 326 326 326 326 326 325 324 322 319 317
286 284 282 276 268 270 274 275 278 280 281 279 273 267 260 256 256 260 266 277 287 290 293 301 311 320 326 329 329 328 327 327 326 326 327 327 326 327 327 327 325 323 320 318
281 276 275 271 270 275 274 272 276 280 275 268 261 251 246 245 247 260 272 277 278 285 300 311 322 327 328 328 328 329 329 328 328 328 328 327 327 326 327 327 326 325 324 321